Location: Kampong Paya Jaras Dalam
(3.1833°N, 101.5500°E)
Time: 05:35:28
(UTC+00:00)

SL-16 R/B - Pass Details

Date: 15 May 2026
Orbit: 984 x 1007 km, 99.8° (Epoch: 7 June)

Event Time Altitude Azimuth Distance (km) Brightness Sun altitude
Rises 20:55:24 0° 146° (SE) 3,730 5.7 -30.4°
Reaches altitude 10° 20:58:11 10° 136° (SE) 2,779 5.1 -29.7°
Maximum altitude 21:03:36 31° 75° (ENE) 1,670 4.2 -28.5°
Drops below altitude 10° 21:08:59 10° 15° (NNE) 2,770 5.3 -27.3°
Sets 21:11:44 0° 6° (N) 3,715 5.9 -26.6°
